This is the latest recevied weather packets stored in our database for station/object YF9UAG-16. If no packets are shown the sender has not sent any weather packets the latest 10 day(s).
| Time | Temp. | Humidity | Pressure | Rain* | Wind** | Luminosity | Snow |
|---|---|---|---|---|---|---|---|
| 1778043690 | 37.78° C | 32% | 1006 hPa | - | - | 0 W/m² | - |
| 1778043368 | 37.78° C | 33% | 1006 hPa | - | - | 0 W/m² | - |
| 1778043046 | 36.67° C | 37% | 1006 hPa | - | - | 0 W/m² | - |
| 1778042724 | 36.67° C | 39% | 1006 hPa | - | - | 0 W/m² | - |
| 1778042402 | 35.56° C | 38% | 1006 hPa | - | - | 0 W/m² | - |
| 1778042080 | 36.11° C | 41% | 1006 hPa | - | - | 0 W/m² | - |
| 1778041758 | 35° C | 39% | 1006 hPa | - | - | 0 W/m² | - |
| 1778041436 | 35.56° C | 41% | 1006 hPa | - | - | 0 W/m² | - |
| 1778041114 | 33.89° C | 45% | 1006 hPa | - | - | 0 W/m² | - |
| 1778040792 | 35° C | 44% | 1006 hPa | - | - | 0 W/m² | - |
| 1778040470 | 35° C | 43% | 1006 hPa | - | - | 0 W/m² | - |
| 1778040148 | 34.44° C | 48% | 1007 hPa | - | - | 0 W/m² | - |
| 1778039826 | 33.33° C | 50% | 1007 hPa | - | - | 0 W/m² | - |
| 1778039504 | 32.78° C | 51% | 1007 hPa | - | - | 0 W/m² | - |
| 1778039182 | 31.67° C | 55% | 1007 hPa | - | - | 0 W/m² | - |
| 1778038860 | 31.67° C | 56% | 1007 hPa | - | - | 0 W/m² | - |
| 1778038538 | 31.67° C | 58% | 1007 hPa | - | - | 0 W/m² | - |
| 1778038216 | 30.56° C | 57% | 1007 hPa | - | - | 0 W/m² | - |
| 1778037894 | 30.56° C | 58% | 1007 hPa | - | - | 0 W/m² | - |
| 1778037572 | 30.56° C | 59% | 1007 hPa | - | - | 0 W/m² | - |
| 1778037250 | 30° C | 57% | 1007 hPa | - | - | 0 W/m² | - |
| 1778036928 | 30.56° C | 58% | 1007 hPa | - | - | 0 W/m² | - |
| 1778036606 | 30° C | 58% | 1008 hPa | - | - | 0 W/m² | - |
| 1778036284 | 29.44° C | 59% | 1008 hPa | - | - | 0 W/m² | - |
| 1778035962 | 28.89° C | 62% | 1008 hPa | - | - | 0 W/m² | - |
* Rain since midnight (hover to see other rain measurements)
** Current wind speed in m/s (hover to see current wind gust speed)